Time,TemperatureF,DewpointF,PressureIn,WindDirection,WindDirectionDegrees,WindSpeedMPH,WindSpeedGustMPH,Humidity,HourlyPrecipIn,Conditions,Clouds,dailyrainin,SolarRadiationWatts/m^2,SoftwareType,DateUTC
2013-02-26 00:21:00,33.0,27.0,-100.00,North,355,6.0,12.0,77,0.00,,,0.00,0.000000,,2013-02-26 09:21:00,
2013-02-26 00:31:00,33.0,27.0,-100.00,North,355,6.0,12.0,77,0.00,,,0.00,0.000000,,2013-02-26 09:31:00,
2013-02-26 00:43:00,33.0,27.0,-100.00,North,355,6.0,12.0,77,0.00,,,0.00,0.000000,,2013-02-26 09:43:00,
2013-02-26 00:51:00,33.0,27.0,-100.00,North,355,6.0,12.0,77,0.00,,,0.00,0.000000,,2013-02-26 09:51:00,
2013-02-26 01:21:00,33.0,27.0,-100.00,North,1,5.0,11.0,79,0.00,,,0.00,0.000000,,2013-02-26 10:21:00,
2013-02-26 01:31:00,33.0,27.0,-100.00,North,1,5.0,11.0,79,0.00,,,0.00,0.000000,,2013-02-26 10:31:00,
2013-02-26 01:41:00,33.0,27.0,-100.00,North,1,5.0,11.0,79,0.00,,,0.00,0.000000,,2013-02-26 10:41:00,
2013-02-26 01:51:00,33.0,27.0,-100.00,North,1,5.0,11.0,79,0.00,,,0.00,0.000000,,2013-02-26 10:51:00,
2013-02-26 02:11:00,34.0,26.0,-100.00,NNE,13,8.0,13.0,73,0.00,,,0.00,0.000000,,2013-02-26 11:11:00,
2013-02-26 02:21:00,34.0,26.0,-100.00,NNE,13,8.0,13.0,73,0.00,,,0.00,0.000000,,2013-02-26 11:21:00,
2013-02-26 02:31:00,34.0,26.0,-100.00,NNE,13,8.0,13.0,73,0.00,,,0.00,0.000000,,2013-02-26 11:31:00,
2013-02-26 02:41:00,34.0,26.0,-100.00,NNE,13,8.0,13.0,73,0.00,,,0.00,0.000000,,2013-02-26 11:41:00,
2013-02-26 02:52:00,34.0,26.0,-100.00,NNE,13,8.0,13.0,73,0.00,,,0.00,0.000000,,2013-02-26 11:52:00,
2013-02-26 03:11:00,33.0,26.0,-100.00,NNW,344,7.0,15.0,74,0.00,,,0.00,0.000000,,2013-02-26 12:11:00,
2013-02-26 03:22:00,33.0,26.0,-100.00,NNW,344,7.0,15.0,74,0.00,,,0.00,0.000000,,2013-02-26 12:22:00,
2013-02-26 03:32:00,33.0,26.0,-100.00,NNW,344,7.0,15.0,74,0.00,,,0.00,0.000000,,2013-02-26 12:32:00,
2013-02-26 03:42:00,33.0,26.0,-100.00,NNW,344,7.0,15.0,74,0.00,,,0.00,0.000000,,2013-02-26 12:42:00,
2013-02-26 03:52:00,33.0,26.0,-100.00,NNW,344,7.0,15.0,74,0.00,,,0.00,0.000000,,2013-02-26 12:52:00,
2013-02-26 04:21:00,34.0,26.0,-100.00,North,359,10.0,19.0,71,0.00,,,0.00,0.000000,,2013-02-26 13:21:00,
2013-02-26 04:31:00,34.0,26.0,-100.00,North,359,10.0,19.0,71,0.00,,,0.00,0.000000,,2013-02-26 13:31:00,
2013-02-26 04:42:00,34.0,26.0,-100.00,North,359,10.0,19.0,71,0.00,,,0.00,0.000000,,2013-02-26 13:42:00,
2013-02-26 04:51:00,34.0,26.0,-100.00,North,359,10.0,19.0,71,0.00,,,0.00,0.000000,,2013-02-26 13:51:00,
2013-02-26 05:11:00,34.0,25.0,-100.00,North,8,10.0,17.0,69,0.00,,,0.00,0.000000,,2013-02-26 14:11:00,
2013-02-26 05:21:00,34.0,25.0,-100.00,North,8,10.0,17.0,69,0.00,,,0.00,0.000000,,2013-02-26 14:21:00,
2013-02-26 05:31:00,34.0,25.0,-100.00,North,8,10.0,17.0,69,0.00,,,0.00,0.000000,,2013-02-26 14:31:00,
2013-02-26 05:41:00,34.0,25.0,-100.00,North,8,10.0,17.0,69,0.00,,,0.00,0.000000,,2013-02-26 14:41:00,
2013-02-26 05:52:00,34.0,25.0,-100.00,North,8,10.0,17.0,69,0.00,,,0.00,0.000000,,2013-02-26 14:52:00,
2013-02-26 06:11:00,34.0,24.0,-100.00,NNW,346,10.0,19.0,66,0.00,,,0.00,0.000000,,2013-02-26 15:11:00,
2013-02-26 06:21:00,34.0,24.0,-100.00,NNW,346,10.0,19.0,66,0.00,,,0.00,0.000000,,2013-02-26 15:21:00,
2013-02-26 06:32:00,34.0,24.0,-100.00,NNW,346,10.0,19.0,66,0.00,,,0.00,0.000000,,2013-02-26 15:32:00,
2013-02-26 06:41:00,34.0,24.0,-100.00,NNW,346,10.0,19.0,66,0.00,,,0.00,0.000000,,2013-02-26 15:41:00,
2013-02-26 06:51:00,34.0,24.0,-100.00,NNW,346,10.0,19.0,66,0.00,,,0.00,0.000000,,2013-02-26 15:51:00,
2013-02-26 07:22:00,34.0,23.0,-100.00,North,354,8.0,15.0,65,0.00,,,0.00,0.000000,,2013-02-26 16:22:00,
2013-02-26 07:31:00,34.0,23.0,-100.00,North,354,8.0,15.0,65,0.00,,,0.00,0.000000,,2013-02-26 16:31:00,
2013-02-26 07:41:00,34.0,23.0,-100.00,North,354,8.0,15.0,65,0.00,,,0.00,0.000000,,2013-02-26 16:41:00,
2013-02-26 07:51:00,34.0,23.0,-100.00,North,354,8.0,15.0,65,0.00,,,0.00,0.000000,,2013-02-26 16:51:00,
2013-02-26 08:11:00,35.0,24.0,-100.00,North,350,10.0,16.0,64,0.00,,,0.00,0.000000,,2013-02-26 17:11:00,
2013-02-26 08:21:00,35.0,24.0,-100.00,North,350,10.0,16.0,64,0.00,,,0.00,0.000000,,2013-02-26 17:21:00,
2013-02-26 08:32:00,35.0,24.0,-100.00,North,350,10.0,16.0,64,0.00,,,0.00,0.000000,,2013-02-26 17:32:00,
2013-02-26 08:41:00,35.0,24.0,-100.00,North,350,10.0,16.0,64,0.00,,,0.00,0.000000,,2013-02-26 17:41:00,
2013-02-26 08:52:00,35.0,24.0,-100.00,North,350,10.0,16.0,64,0.00,,,0.00,0.000000,,2013-02-26 17:52:00,
2013-02-26 10:11:00,36.0,24.0,-100.00,North,1,11.0,18.0,62,-99.99,,,0.00,57.000000,,2013-02-26 19:11:00,
2013-02-26 10:22:00,36.0,24.0,-100.00,North,1,11.0,18.0,62,-99.99,,,0.00,57.000000,,2013-02-26 19:22:00,
2013-02-26 10:31:00,36.0,24.0,-100.00,North,1,11.0,18.0,62,-99.99,,,0.00,57.000000,,2013-02-26 19:31:00,
2013-02-26 10:41:00,36.0,24.0,-100.00,North,1,11.0,18.0,62,-99.99,,,0.00,57.000000,,2013-02-26 19:41:00,
2013-02-26 10:51:00,36.0,24.0,-100.00,North,1,11.0,18.0,62,-99.99,,,0.00,57.000000,,2013-02-26 19:51:00,
2013-02-26 11:21:00,37.0,25.0,-100.00,NNW,345,8.0,16.0,61,0.00,,,0.00,115.000000,,2013-02-26 20:21:00,
2013-02-26 11:31:00,37.0,25.0,-100.00,NNW,345,8.0,16.0,61,0.00,,,0.00,115.000000,,2013-02-26 20:31:00,
2013-02-26 11:41:00,37.0,25.0,-100.00,NNW,345,8.0,16.0,61,0.00,,,0.00,115.000000,,2013-02-26 20:41:00,
2013-02-26 11:51:00,37.0,25.0,-100.00,NNW,345,8.0,16.0,61,0.00,,,0.00,115.000000,,2013-02-26 20:51:00,
2013-02-26 12:21:00,39.0,25.0,-100.00,North,357,9.0,16.0,57,0.00,,,0.00,281.000000,,2013-02-26 21:21:00,
2013-02-26 12:31:00,39.0,25.0,-100.00,North,357,9.0,16.0,57,0.00,,,0.00,281.000000,,2013-02-26 21:31:00,
2013-02-26 12:41:00,39.0,25.0,-100.00,North,357,9.0,16.0,57,0.00,,,0.00,281.000000,,2013-02-26 21:41:00,
2013-02-26 12:51:00,39.0,25.0,-100.00,North,357,9.0,16.0,57,0.00,,,0.00,281.000000,,2013-02-26 21:51:00,
2013-02-26 13:21:00,39.0,26.0,-100.00,North,2,11.0,16.0,59,0.00,,,0.00,242.000000,,2013-02-26 22:21:00,
2013-02-26 13:31:00,39.0,26.0,-100.00,North,2,11.0,16.0,59,0.00,,,0.00,242.000000,,2013-02-26 22:31:00,
2013-02-26 13:41:00,39.0,26.0,-100.00,North,2,11.0,16.0,59,0.00,,,0.00,242.000000,,2013-02-26 22:41:00,
2013-02-26 13:51:00,39.0,26.0,-100.00,North,2,11.0,16.0,59,0.00,,,0.00,242.000000,,2013-02-26 22:51:00,
2013-02-26 14:21:00,38.0,27.0,-100.00,North,3,10.0,20.0,64,0.01,,,0.01,283.000000,,2013-02-26 23:21:00,
2013-02-26 14:31:00,38.0,27.0,-100.00,North,3,10.0,20.0,64,0.01,,,0.01,283.000000,,2013-02-26 23:31:00,
2013-02-26 14:41:00,38.0,27.0,-100.00,North,3,10.0,20.0,64,0.01,,,0.01,283.000000,,2013-02-26 23:41:00,
2013-02-26 14:51:00,38.0,27.0,-100.00,North,3,10.0,20.0,64,0.01,,,0.01,283.000000,,2013-02-26 23:51:00,
2013-02-26 15:11:00,38.0,27.0,-100.00,North,351,9.0,16.0,64,0.01,,,0.02,334.000000,,2013-02-27 00:11:00,
2013-02-26 15:21:00,38.0,27.0,-100.00,North,351,9.0,16.0,64,0.01,,,0.02,334.000000,,2013-02-27 00:21:00,
2013-02-26 15:31:00,38.0,27.0,-100.00,North,351,9.0,16.0,64,0.01,,,0.02,334.000000,,2013-02-27 00:31:00,
2013-02-26 15:41:00,38.0,27.0,-100.00,North,351,9.0,16.0,64,0.01,,,0.02,334.000000,,2013-02-27 00:41:00,
2013-02-26 15:51:00,38.0,27.0,-100.00,North,351,9.0,16.0,64,0.01,,,0.02,334.000000,,2013-02-27 00:51:00,
2013-02-26 16:21:00,38.0,25.0,-100.00,North,1,7.0,15.0,59,0.00,,,0.02,145.000000,,2013-02-27 01:21:00,
2013-02-26 16:31:00,38.0,25.0,-100.00,North,1,7.0,15.0,59,0.00,,,0.02,145.000000,,2013-02-27 01:31:00,
2013-02-26 16:41:00,38.0,25.0,-100.00,North,1,7.0,15.0,59,0.00,,,0.02,145.000000,,2013-02-27 01:41:00,
2013-02-26 16:51:00,38.0,25.0,-100.00,North,1,7.0,15.0,59,0.00,,,0.02,145.000000,,2013-02-27 01:51:00,
2013-02-26 17:13:00,39.0,26.0,-100.00,North,4,8.0,18.0,60,0.00,,,0.02,105.000000,,2013-02-27 02:13:00,
2013-02-26 17:22:00,39.0,26.0,-100.00,North,4,8.0,18.0,60,0.00,,,0.02,105.000000,,2013-02-27 02:22:00,
2013-02-26 17:32:00,39.0,26.0,-100.00,North,4,8.0,18.0,60,0.00,,,0.02,105.000000,,2013-02-27 02:32:00,
2013-02-26 17:41:00,39.0,26.0,-100.00,North,4,8.0,18.0,60,0.00,,,0.02,105.000000,,2013-02-27 02:41:00,
2013-02-26 17:52:00,39.0,26.0,-100.00,North,4,8.0,18.0,60,0.00,,,0.02,105.000000,,2013-02-27 02:52:00,
2013-02-26 18:21:00,37.0,25.0,-100.00,North,359,7.0,15.0,62,0.00,,,0.02,82.000000,,2013-02-27 03:21:00,
2013-02-26 18:32:00,37.0,25.0,-100.00,North,359,7.0,15.0,62,0.00,,,0.02,82.000000,,2013-02-27 03:32:00,
2013-02-26 18:41:00,37.0,25.0,-100.00,North,359,7.0,15.0,62,0.00,,,0.02,82.000000,,2013-02-27 03:41:00,
2013-02-26 18:51:00,37.0,25.0,-100.00,North,359,7.0,15.0,62,0.00,,,0.02,82.000000,,2013-02-27 03:51:00,
2013-02-26 19:11:00,35.0,26.0,-100.00,North,354,6.0,11.0,68,0.00,,,0.02,7.000000,,2013-02-27 04:11:00,
2013-02-26 19:21:00,35.0,26.0,-100.00,North,354,6.0,11.0,68,0.00,,,0.02,7.000000,,2013-02-27 04:21:00,
2013-02-26 19:31:00,35.0,26.0,-100.00,North,354,6.0,11.0,68,0.00,,,0.02,7.000000,,2013-02-27 04:31:00,
2013-02-26 19:41:00,35.0,26.0,-100.00,North,354,6.0,11.0,68,0.00,,,0.02,7.000000,,2013-02-27 04:41:00,
2013-02-26 19:51:00,35.0,26.0,-100.00,North,354,6.0,11.0,68,0.00,,,0.02,7.000000,,2013-02-27 04:51:00,
2013-02-26 20:22:00,34.0,26.0,-100.00,NNE,20,7.0,15.0,72,0.00,,,0.02,0.000000,,2013-02-27 05:22:00,
2013-02-26 20:32:00,34.0,26.0,-100.00,NNE,20,7.0,15.0,72,0.00,,,0.02,0.000000,,2013-02-27 05:32:00,
2013-02-26 20:41:00,34.0,26.0,-100.00,NNE,20,7.0,15.0,72,0.00,,,0.02,0.000000,,2013-02-27 05:41:00,
2013-02-26 20:52:00,34.0,26.0,-100.00,NNE,20,7.0,15.0,72,0.00,,,0.02,0.000000,,2013-02-27 05:52:00,
2013-02-26 21:11:00,33.0,26.0,-100.00,North,349,7.0,16.0,76,0.00,,,0.02,0.000000,,2013-02-27 06:11:00,
2013-02-26 21:21:00,33.0,26.0,-100.00,North,349,7.0,16.0,76,0.00,,,0.02,0.000000,,2013-02-27 06:21:00,
2013-02-26 21:32:00,33.0,26.0,-100.00,North,349,7.0,16.0,76,0.00,,,0.02,0.000000,,2013-02-27 06:32:00,
2013-02-26 21:41:00,33.0,26.0,-100.00,North,349,7.0,16.0,76,0.00,,,0.02,0.000000,,2013-02-27 06:41:00,
2013-02-26 21:51:00,33.0,26.0,-100.00,North,349,7.0,16.0,76,0.00,,,0.02,0.000000,,2013-02-27 06:51:00,
2013-02-26 22:12:00,35.0,27.0,-100.00,NNE,21,10.0,18.0,72,0.00,,,0.02,0.000000,,2013-02-27 07:12:00,
2013-02-26 22:21:00,35.0,27.0,-100.00,NNE,21,10.0,18.0,72,0.00,,,0.02,0.000000,,2013-02-27 07:21:00,
2013-02-26 22:31:00,35.0,27.0,-100.00,NNE,21,10.0,18.0,72,0.00,,,0.02,0.000000,,2013-02-27 07:31:00,
2013-02-26 22:41:00,35.0,27.0,-100.00,NNE,21,10.0,18.0,72,0.00,,,0.02,0.000000,,2013-02-27 07:41:00,
2013-02-26 22:51:00,35.0,27.0,-100.00,NNE,21,10.0,18.0,72,0.00,,,0.02,0.000000,,2013-02-27 07:51:00,
2013-02-26 23:11:00,35.0,28.0,-100.00,NNE,32,6.0,16.0,76,0.00,,,0.02,0.000000,,2013-02-27 08:11:00,
2013-02-26 23:21:00,35.0,28.0,-100.00,NNE,32,6.0,16.0,76,0.00,,,0.02,0.000000,,2013-02-27 08:21:00,
2013-02-26 23:31:00,35.0,28.0,-100.00,NNE,32,6.0,16.0,76,0.00,,,0.02,0.000000,,2013-02-27 08:31:00,
2013-02-26 23:41:00,35.0,28.0,-100.00,NNE,32,6.0,16.0,76,0.00,,,0.02,0.000000,,2013-02-27 08:41:00,
2013-02-26 23:52:00,35.0,28.0,-100.00,NNE,32,6.0,16.0,76,0.00,,,0.02,0.000000,,2013-02-27 08:52:00,